User: anonymous   Login
Location: Unspecified
(0.0000°N, 0.0000°E)
Time: 22:57:53
(UTC+00:00)
Language:

S-56A Canister/Altair - Orbit

View from above orbital plane
View from above orbital plane
View from above satellite
View from above satellite

Ground track
Ground track

The orbit data is extracted from the following two-line orbital elements,

1    82U 61004B   19321.92406587 +.00000024 +00000-0 +61577-4 0  9994
2    82 038.8554 265.3269 1173626 137.8583 231.8598 12.26056187781728
Epoch (UTC): 17 November 2019 22:10:39
Eccentricity: 0.1173626
inclination: 38.8554°
perigee height: 634 km
apogee height: 2498 km
right ascension of ascending node: 265.3269°
argument of perigee: 137.8583°
revolutions per day: 12.26056187
mean anomaly at epoch: 231.8598°
orbit number at epoch: 78172

The dashed part of the orbit path shows where the satellite is in the earth's shadow,  

DLR